Regional Weather Roundup
Issued by NWS

Home | Current Version | Previous Version | Graphics & Text | Print | Product List | Glossary On
Versions: 1 2 3 4 5 6 7 8 9 10 11 12 13 14 15 16 17 18 19 20 21 22 23 24 25 26 27 28 29 30 31 32 33 34 35 36 37 38 39 40 41 42 43 44 45 46 47 48 49 50
000
ASUS43 KLOT 182358
RWRIL

ILLINOIS REGIONAL WEATHER ROUNDUP
NATIONAL WEATHER SERVICE CHICAGO/ROMEOVILLE IL
700 PM CDT FRI APR 18 2014

NOTE: "FAIR" INDICATES FEW OR NO CLOUDS BELOW 12,000 FEET WITH NO
SIGNIFICANT WEATHER AND/OR OBSTRUCTIONS TO VISIBILITY.

* THESE STATIONS ARE NOT UNDER NWS QUALITY CONTROL. THEY ALSO MAY NOT
  REPORT WEATHER SUCH AS PRECIPITATION OR FOG.

ILZ001-002-007-009-015-016-024-190100-
NORTHWEST ILLINOIS

CITY           SKY/WX    TMP DP  RH WIND       PRES   REMARKS
MOLINE         CLEAR     60  29  30 NE7       30.24F
6HR MIN TEMP:  55; 6HR MAX TEMP:  64;

$$

ILZ003-004-008-010-011-017-018-190100-
NORTH CENTRAL ILLINOIS

CITY           SKY/WX    TMP DP  RH WIND       PRES   REMARKS
ROCKFORD       NOT AVBL
$$

ILZ005-006-012>014-019>023-190100-
NORTHEAST ILLINOIS

CITY           SKY/WX    TMP DP  RH WIND       PRES   REMARKS
CHICAGO-OHARE  CLEAR     42  29  59 NE15      30.33F
6HR MIN TEMP:  42; 6HR MAX TEMP:  51;

CHICAGO-MIDWAY CLEAR     43  33  68 NE10      30.33F
6HR MIN TEMP:  43; 6HR MAX TEMP:  51;

AURORA         CLEAR     52  35  52 NE15      30.29S
6HR MIN TEMP:  52; 6HR MAX TEMP:  63;

WAUKEGAN       CLEAR     36  29  75 N10       30.35F WCI  28
6HR MIN TEMP:  36; 6HR MAX TEMP:  44;

DUPAGE AIRPORT CLEAR     46  33  60 NE14      30.31R
6HR MIN TEMP:  46; 6HR MAX TEMP:  60;

WHEELING       CLEAR     40  30  67 NE9       30.36F
6HR MIN TEMP:  40; 6HR MAX TEMP:  47;

NORTHERLY ISL    N/A     38  33  82 N16         N/A  WCI  29
$$

LMZ740>746-190100-
SOUTHERN LAKE MICHIGAN

STATION/POSITION SKY/WX   TEMP    WIND        PRES    VSBY  WAVE
                          AIR SEA DIR/SP/G                  HT/PER
                          (F)     (DEG/KT/KT) (MB)    (MI)  (FT/S)
WAUKEGAN HARBOR            36      40/ 14/ 16 1029.1S
HARRISON CRIB              36      30/ 14/ 15   N/A
BURNHAM HARBOR             38      20/ 12/ 13   N/A
CALUMET HARBOR             38      20/ 11/ 15 1028.3S
MICHIGAN CITY              37      20/ 18/ 20   N/A
$$

ILZ025>027-034>036-040-047-049-050-058-095>099-190100-
WEST-CENTRAL ILLINOIS

CITY           SKY/WX    TMP DP  RH WIND       PRES   REMARKS
$$

ILZ028>032-037-038-041>044-048-051>054-059>061-190100-
CENTRAL ILLINOIS

CITY           SKY/WX    TMP DP  RH WIND       PRES   REMARKS
PEORIA         NOT AVBL
SPRINGFIELD    CLEAR     67  25  20 NE7       30.22F
6HR MIN TEMP:  64; 6HR MAX TEMP:  70;

TAYLORVILLE    NOT AVBL
$$

ILZ033-039-045-046-055>057-062-063-190100-
EAST-CENTRAL ILLINOIS

CITY           SKY/WX    TMP DP  RH WIND       PRES   REMARKS
MATTOON        CLEAR     65  40  39 N7        30.21F
$$

ILZ079-100>102-190100-
SOUTHWEST ILLINOIS

CITY           SKY/WX    TMP DP  RH WIND       PRES   REMARKS
ALTON          CLEAR     66  36  32 VRB3      30.22S
CAHOKIA*       CLEAR     68  43  40 CALM      30.20F
$$

ILZ064>066-069>071-074>076-080>082-084>086-088>090-092>094-190100-
SOUTH-CENTRAL ILLINOIS

CITY           SKY/WX    TMP DP  RH WIND       PRES   REMARKS
CARBONDALE     CLEAR     67  43  41 NE5       30.20S
6HR MIN TEMP:  67; 6HR MAX TEMP:  72;

$$

ILZ067-068-072-073-078-083-087-091-190100-
SOUTHEAST ILLINOIS

CITY           SKY/WX    TMP DP  RH WIND       PRES   REMARKS
$$

ABBREVIATIONS USED IN REMARKS
   TC - TEMPERATURE IN CELSIUS
  WCI - WIND CHILL INDEX
   HX - HEAT INDEX
  VSB - VISIBILITY
$$




USA.gov is the U.S. government's official web portal to all federal, state and local government web resources and services.